Wind_Speed
13 12 12 10 9 8 6 6 7 8 9 9 9 10 11 11 11 12 12 12 12 13 13 13 13 13 13 12 12 12 12 12 12 12 12 11 10 10 9 9 9 8 8 8
14 14 13 11 9 9 7 6 5 6 6 6 7 8 9 9 10 10 10 11 11 12 12 12 12 13 12 12 12 12 12 12 11 11 11 11 11 10 9 8 9 8 8 7
15 15 14 12 10 9 8 6 4 2 3 4 4 5 5 7 7 8 9 9 10 11 11 11 11 12 12 11 11 11 11 11 10 10 10 10 10 10 9 8 8 8 7 6
16 16 15 14 11 9 8 6 4 3 1 1 2 3 4 5 5 6 7 8 9 9 9 9 10 10 11 11 10 10 10 10 10 9 9 8 8 9 8 8 7 7 7 6
18 17 16 15 13 11 9 8 6 5 3 2 2 3 2 3 4 5 6 7 7 8 8 8 8 9 9 9 10 9 9 9 9 8 8 7 7 7 7 7 6 6 6 6
20 19 18 16 15 13 11 9 8 7 6 5 4 4 3 3 2 3 4 5 5 6 6 6 7 7 8 8 8 8 8 8 8 8 7 7 6 6 6 5 6 6 6 6
21 20 19 17 16 14 13 11 10 8 8 6 6 5 4 4 3 2 3 3 4 4 5 5 6 7 7 7 7 7 7 7 7 7 7 7 7 6 6 5 5 6 6 6
22 22 20 18 17 16 15 13 13 11 10 9 8 7 5 5 5 4 3 2 3 3 3 4 4 5 6 6 6 7 7 6 7 7 7 7 7 7 6 6 6 6 6 7
23 22 20 20 19 18 16 15 14 13 12 12 11 9 7 7 7 6 4 3 2 2 1 1 2 3 4 5 5 6 7 6 7 7 7 7 7 7 7 6 6 7 8 8
24 23 22 21 20 19 18 17 17 15 14 14 12 11 10 9 8 7 6 5 4 3 3 3 3 4 5 5 5 6 7 7 7 8 7 7 8 8 8 7 8 8 8 9
26 25 24 23 23 21 20 20 19 17 16 15 15 13 11 11 11 9 8 7 6 5 5 4 4 5 5 6 7 7 8 8 8 9 8 9 9 10 10 10 11 10 10 11
27 26 25 25 24 24 23 22 21 21 19 18 17 15 13 13 12 11 10 8 8 8 7 7 7 7 7 7 8 8 9 9 10 10 10 10 11 11 12 12 12 12 12 13
28 28 27 27 27 26 26 25 24 23 22 21 20 17 15 14 14 12 11 11 10 10 10 9 9 9 9 10 11 11 11 11 11 12 12 12 12 13 14 14 14 14 14 13
30 30 29 28 27 27 27 26 26 25 25 24 22 20 17 15 15 14 13 14 13 12 12 12 12 12 12 13 13 14 14 13 13 13 14 14 14 14 14 15 15 15 15 14
31 31 30 29 29 29 29 28 28 28 27 26 24 22 19 18 17 17 16 16 16 16 15 15 15 15 15 15 16 16 16 16 16 16 15 15 15 15 16 16 16 16 16 16
32 31 31 31 30 31 31 30 29 29 28 27 25 23 22 21 20 19 19 19 18 18 18 18 18 19 19 19 18 18 19 18 18 18 17 17 18 18 18 17 17 17 17 17
35 33 32 32 32 32 33 31 31 31 30 29 28 26 24 23 23 22 22 22 22 22 21 20 21 22 22 22 22 21 21 20 20 20 20 20 20 20 21 21 20 20 20 20
36 35 34 34 34 35 33 32 32 32 32 31 30 29 28 26 26 25 25 24 24 24 24 23 24 25 25 25 24 24 23 23 22 22 22 22 23 23 23 23 23 22 22 22
36 35 35 35 36 36 35 34 33 33 33 32 31 31 30 29 28 27 27 26 26 26 26 26 26 26 26 26 26 25 24 24 23 23 24 24 25 25 25 25 25 25 25 25
37 37 37 37 37 37 36 34 33 33 34 32 32 32 32 32 31 29 28 28 28 28 27 27 26 26 27 27 27 26 26 26 26 26 26 27 27 27 27 27 27 27 28 27
38 38 37 37 37 36 35 34 33 34 33 32 32 32 33 33 32 31 31 30 30 30 30 30 29 28 28 28 28 28 28 27 28 28 28 28 28 28 28 28 28 28 28 28
38 38 38 37 37 35 33 34 34 34 34 33 33 33 34 33 33 33 32 32 31 32 32 32 30 29 29 29 29 29 29 29 30 30 30 30 30 29 29 29 29 29 30 30
37 37 37 37 36 35 35 35 35 34 34 34 34 34 35 34 34 34 34 34 33 33 33 33 32 31 30 31 31 31 31 32 32 32 33 33 32 32 32 32 31 31 31 31
38 37 37 37 37 36 36 36 36 36 35 35 35 35 35 34 35 35 36 36 35 35 34 34 33 32 32 32 32 33 33 33 33 34 34 35 35 35 35 34 34 33 33 32
36 37 37 37 36 36 36 36 36 35 36 36 36 36 36 36 36 37 37 37 37 37 36 36 36 35 35 35 35 35 36 36 35 35 36 36 36 37 36 36 35 34 34 34
36 36 36 36 36 37 37 37 36 36 36 36 36 37 38 38 38 38 38 38 38 38 37 38 38 38 37 37 37 37 38 38 38 37 37 37 38 38 37 37 36 35 35 35
Wind_Direction
183 178 174 176 172 156 138 115 102 91 83 76 68 59 58 58 56 55 59 61 60 57 57 59 61 62 63 65 65 65 66 69 70 71 71 71 72 73 71 68 69 68 68 68
191 183 181 183 182 170 155 139 119 100 86 77 72 64 57 51 48 51 55 59 60 57 57 58 59 59 62 64 64 64 64 65 67 69 71 71 70 72 71 68 67 65 64 65
193 190 190 193 191 184 171 162 149 127 94 75 75 61 51 42 42 49 53 56 60 58 56 57 59 59 60 64 66 63 62 61 64 67 69 70 69 67 67 65 63 61 56 58
196 197 199 198 198 198 192 187 194 210 206 47 46 39 39 37 36 42 50 52 54 55 54 56 61 61 59 62 64 62 59 57 59 65 67 66 64 62 59 56 55 53 50 45
202 202 205 205 205 208 211 218 221 227 247 276 321 341 8 10 26 37 46 49 51 53 54 58 62 60 58 58 57 57 57 56 54 53 56 57 53 50 46 44 42 40 41 37
207 205 206 206 209 215 222 228 231 236 247 264 290 306 324 334 353 24 40 42 46 49 54 60 62 55 51 51 50 49 49 50 49 45 43 43 42 37 32 30 26 24 23 17
210 209 209 208 213 220 227 234 237 244 256 269 271 283 302 303 298 319 3 24 37 44 54 55 56 47 43 41 40 38 36 34 33 33 33 33 28 22 16 12 9 5 2 357
213 212 213 214 220 225 231 239 245 254 262 263 265 271 282 285 287 288 319 352 15 31 41 45 46 35 28 28 27 24 20 19 19 18 19 14 9 4 360 355 349 346 343 341
218 217 217 217 220 225 230 237 246 254 258 259 261 266 266 271 278 281 292 315 337 348 353 20 23 18 6 6 5 6 9 4 1 1 0 356 350 348 345 341 337 332 331 330
220 219 218 220 223 228 232 237 241 248 254 258 259 263 268 270 274 274 276 283 293 303 308 315 342 353 349 344 343 342 353 346 342 340 339 337 334 332 330 326 326 319 324 323
220 221 220 223 226 230 233 237 242 248 252 257 259 259 263 266 272 274 274 276 280 284 293 298 307 320 326 325 327 330 331 329 327 328 326 324 324 326 327 322 318 316 315 315
221 223 224 225 228 231 234 238 243 248 254 258 260 260 263 264 267 270 271 272 276 280 283 284 283 291 301 307 309 312 315 314 317 319 319 318 316 315 314 315 316 313 309 311
223 224 224 225 227 230 235 239 245 248 251 255 257 260 263 263 264 267 268 268 272 280 284 282 279 287 294 298 300 300 302 304 307 309 310 311 311 308 308 311 309 310 307 308
228 228 229 229 231 233 236 240 244 247 250 253 254 258 261 262 263 265 266 267 270 278 282 282 281 281 288 293 297 295 293 295 298 300 301 304 307 305 303 304 303 305 307 307
231 233 233 232 232 234 237 240 243 248 250 252 253 256 258 260 264 265 265 267 270 276 279 278 278 280 284 288 292 297 296 295 294 295 296 298 300 301 300 301 303 303 302 304
232 235 236 235 235 236 238 240 244 248 251 252 254 255 259 261 263 266 265 265 268 274 278 277 277 279 281 285 289 293 296 296 292 292 297 297 296 296 297 297 299 299 298 299
233 236 237 238 239 240 240 241 245 248 251 253 255 257 259 262 262 265 267 268 270 272 275 277 279 280 281 283 286 290 292 293 294 293 295 294 295 294 294 294 294 295 295 295
234 236 238 240 242 244 245 246 247 250 251 253 255 257 257 259 261 264 267 270 271 274 273 274 279 279 281 282 284 287 290 291 294 293 293 293 293 293 291 290 290 291 290 289
236 237 240 243 245 247 248 250 249 250 251 253 254 255 257 258 261 263 267 269 271 274 274 274 276 279 280 282 283 285 287 289 291 292 292 293 293 293 291 289 288 287 287 286
235 237 240 243 245 246 249 250 249 251 253 254 254 255 256 259 262 263 266 268 269 272 273 273 276 279 280 281 281 282 284 286 289 290 291 292 292 292 289 288 287 285 285 285
237 239 241 244 246 248 249 250 251 252 254 254 254 254 256 259 262 263 264 266 267 269 271 273 275 277 280 281 281 282 283 286 288 289 289 290 291 291 289 287 286 286 285 285
239 241 242 244 247 247 248 250 252 254 255 255 256 255 256 257 258 261 263 265 267 269 272 273 273 275 277 280 280 282 285 286 286 287 288 289 289 289 289 287 287 287 286 284
239 241 243 244 246 247 248 249 251 253 255 256 257 257 256 256 256 258 260 263 266 268 271 272 273 277 278 278 279 281 284 285 287 287 287 287 287 287 288 287 286 287 287 286
239 241 243 244 246 247 250 251 251 253 254 255 256 256 256 256 257 258 259 262 265 268 270 271 273 276 277 279 280 282 284 285 286 286 286 286 286 287 287 287 286 287 288 287
241 242 244 245 247 249 250 252 251 252 253 253 255 256 256 256 257 259 262 264 266 268 269 270 272 273 275 278 280 282 283 284 284 285 285 285 285 286 286 285 285 285 285 285
243 244 245 247 249 250 251 251 251 252 253 254 255 255 257 258 258 259 261 263 263 264 266 269 271 272 274 276 278 280 281 282 283 284 285 285 285 285 284 283 282 283 283 284
Height
5904 5907 5907 5909 5910 5911 5911 5912 5912 5912 5912 5912 5912 5911 5911 5910 5909 5908 5907 5906 5904 5903 5902 5901 5900 5899 5898 5897 5896 5895 5894 5894 5893 5892 5892 5892 5891 5891 5891 5890 5890 5889 5888 5888
5905 5906 5908 5909 5910 5911 5912 5912 5913 5913 5913 5913 5913 5913 5913 5912 5911 5910 5909 5908 5906 5905 5904 5903 5902 5901 5900 5899 5898 5897 5897 5896 5895 5895 5894 5894 5893 5893 5892 5892 5891 5891 5890 5890
5903 5906 5907 5908 5909 5911 5912 5913 5914 5914 5914 5914 5915 5915 5914 5913 5912 5912 5911 5909 5908 5907 5906 5905 5904 5903 5902 5902 5901 5900 5899 5898 5897 5897 5896 5896 5895 5894 5894 5894 5893 5892 5892 5891
5902 5904 5906 5907 5909 5911 5912 5913 5914 5914 5914 5915 5915 5915 5915 5914 5914 5913 5912 5911 5910 5909 5908 5907 5906 5905 5904 5903 5902 5902 5901 5900 5899 5898 5898 5897 5897 5896 5895 5895 5894 5893 5893 5892
5900 5902 5904 5906 5908 5910 5911 5912 5913 5914 5914 5915 5915 5915 5916 5915 5914 5914 5913 5912 5911 5910 5909 5908 5907 5907 5906 5905 5904 5903 5902 5901 5900 5900 5899 5899 5898 5897 5896 5895 5895 5894 5893 5892
5898 5900 5902 5905 5907 5909 5910 5911 5912 5913 5913 5914 5915 5915 5916 5915 5915 5914 5914 5913 5912 5911 5910 5909 5908 5908 5907 5906 5905 5904 5903 5903 5902 5901 5900 5899 5898 5898 5897 5896 5895 5894 5893 5893
5896 5898 5900 5903 5905 5907 5909 5910 5911 5911 5912 5913 5914 5914 5916 5915 5915 5914 5914 5913 5913 5912 5911 5910 5909 5908 5908 5907 5906 5905 5904 5904 5903 5902 5901 5900 5899 5898 5897 5896 5895 5894 5893 5892
5893 5896 5898 5901 5903 5905 5907 5909 5910 5911 5911 5912 5913 5913 5915 5915 5914 5914 5914 5913 5913 5912 5911 5910 5909 5909 5908 5908 5907 5906 5905 5904 5903 5902 5902 5901 5900 5899 5897 5896 5895 5894 5893 5891
5890 5894 5896 5898 5900 5902 5904 5906 5908 5909 5909 5910 5911 5912 5914 5913 5914 5913 5913 5913 5912 5912 5911 5910 5909 5909 5909 5908 5907 5906 5906 5905 5904 5903 5902 5901 5899 5898 5897 5896 5894 5893 5892 5890
5886 5890 5893 5895 5897 5899 5902 5903 5905 5906 5907 5908 5909 5910 5912 5912 5912 5912 5912 5912 5912 5911 5911 5910 5909 5908 5908 5908 5907 5906 5905 5904 5903 5902 5901 5900 5899 5897 5896 5894 5893 5891 5890 5888
5882 5886 5889 5891 5893 5896 5898 5900 5901 5903 5905 5906 5907 5910 5910 5910 5911 5911 5911 5911 5911 5911 5910 5909 5908 5908 5907 5906 5906 5905 5904 5903 5902 5901 5900 5899 5898 5896 5895 5893 5891 5889 5887 5886
5877 5881 5884 5887 5890 5892 5894 5896 5898 5900 5902 5903 5904 5909 5907 5908 5908 5908 5909 5909 5909 5909 5909 5908 5907 5906 5906 5905 5904 5904 5903 5902 5901 5900 5898 5897 5896 5894 5893 5891 5889 5887 5885 5883
5873 5876 5879 5882 5886 5888 5889 5891 5894 5896 5898 5899 5901 5905 5904 5905 5905 5906 5906 5906 5906 5907 5906 5906 5905 5905 5904 5903 5902 5901 5900 5899 5898 5897 5896 5894 5893 5891 5890 5888 5887 5885 5883 5881
5868 5871 5874 5878 5880 5883 5885 5887 5889 5891 5893 5895 5897 5899 5901 5901 5902 5903 5903 5903 5903 5904 5903 5903 5903 5902 5901 5901 5900 5899 5897 5896 5895 5894 5892 5891 5889 5888 5887 5885 5884 5882 5880 5878
5861 5864 5868 5871 5875 5877 5880 5882 5884 5886 5888 5890 5892 5894 5896 5897 5898 5899 5899 5900 5900 5900 5900 5900 5899 5899 5898 5897 5896 5895 5894 5893 5891 5890 5888 5887 5886 5884 5883 5881 5880 5878 5877 5875
5854 5858 5861 5865 5868 5870 5873 5876 5878 5880 5882 5884 5887 5889 5891 5892 5893 5894 5894 5895 5895 5896 5896 5895 5895 5894 5893 5893 5892 5891 5890 5888 5887 5886 5884 5883 5882 5880 5879 5877 5875 5874 5872 5870
5847 5851 5855 5858 5861 5863 5866 5870 5873 5875 5877 5879 5881 5884 5885 5887 5888 5889 5889 5890 5890 5891 5891 5891 5890 5889 5888 5888 5887 5886 5884 5883 5881 5880 5879 5878 5877 5875 5874 5872 5871 5869 5867 5865
5840 5844 5847 5850 5854 5856 5862 5863 5866 5868 5870 5872 5875 5877 5879 5880 5882 5883 5883 5884 5884 5885 5885 5885 5884 5883 5882 5881 5881 5880 5879 5878 5877 5876 5874 5873 5872 5870 5869 5867 5865 5863 5862 5860
5832 5836 5839 5842 5845 5848 5853 5855 5857 5860 5863 5865 5868 5870 5871 5873 5874 5876 5877 5878 5878 5878 5878 5878 5877 5876 5876 5875 5875 5874 5873 5872 5871 5870 5869 5867 5866 5864 5862 5861 5859 5858 5856 5854
5824 5828 5832 5834 5837 5840 5846 5848 5849 5853 5855 5858 5860 5862 5864 5865 5867 5869 5870 5870 5871 5871 5871 5871 5870 5869 5869 5868 5868 5867 5866 5865 5864 5863 5862 5861 5859 5857 5856 5854 5852 5851 5849 5847
5816 5819 5823 5826 5828 5832 5837 5839 5842 5845 5848 5850 5852 5854 5856 5857 5860 5861 5862 5863 5863 5863 5863 5863 5863 5862 5861 5861 5860 5860 5859 5859 5858 5856 5855 5853 5852 5850 5848 5846 5845 5843 5841 5840
5808 5811 5814 5817 5820 5826 5828 5831 5834 5836 5839 5841 5843 5845 5847 5849 5851 5852 5853 5854 5855 5855 5855 5855 5854 5854 5854 5853 5853 5852 5851 5851 5849 5848 5847 5845 5844 5842 5840 5839 5837 5835 5834 5832
5799 5803 5806 5810 5815 5817 5819 5822 5825 5827 5830 5832 5834 5836 5838 5840 5842 5843 5844 5845 5846 5846 5846 5846 5846 5846 5846 5845 5844 5844 5843 5842 5840 5839 5838 5836 5835 5833 5832 5830 5829 5827 5826 5824
5791 5795 5798 5802 5805 5808 5811 5813 5816 5818 5821 5823 5825 5827 5829 5831 5833 5834 5835 5835 5836 5837 5837 5837 5837 5837 5837 5836 5835 5835 5834 5832 5831 5830 5828 5827 5825 5824 5822 5821 5820 5818 5817 5815
5783 5787 5789 5793 5796 5799 5802 5804 5806 5808 5811 5813 5815 5817 5819 5821 5823 5824 5825 5826 5826 5826 5826 5827 5827 5827 5827 5826 5825 5825 5824 5823 5821 5820 5819 5817 5815 5814 5813 5811 5810 5808 5807 5805
5775 5778 5781 5784 5787 5790 5792 5794 5796 5799 5801 5803 5805 5807 5808 5810 5812 5813 5814 5815 5815 5815 5816 5816 5816 5816 5816 5816 5815 5814 5813 5812 5811 5810 5808 5806 5805 5803 5801 5800 5799 5798 5797 5795